Location: Oakhurst
(33.6448°N, 111.9543°W)
Time: 05:04:03
(UTC+00:00)

QB50P2 - Pass Details

Date: 03 August 2021
Orbit: 593 x 608 km, 97.9° (Epoch: 26 September)

Event Time Altitude Azimuth Distance (km) Brightness Sun altitude
Rises 09:08:47 0° 357° (N) 2,860 ? -34.2°
Reaches altitude 10° 09:11:14 10° 345° (NNW) 1,956 ? -33.9°
Enters shadow 09:11:47 13° 340° (NNW) 1,770 ? -33.9°
